Regional Weather Roundup
Issued by NWS Green Bay, WI

Home | Current Version | Previous Version | Text Only | Print | Product List | Glossary On
Versions: 1 2 3 4 5 6 7 8 9 10 11 12 13 14 15 16 17 18 19 20 21 22 23 24 25 26 27 28 29 30 31 32 33 34 35 36 37 38 39 40 41 42 43 44 45 46 47 48 49 50
000
ASUS43 KGRB 162159
RWRGRB

NORTH-CENTRAL AND NORTHEAST WISCONSIN REGIONAL WEATHER ROUNDUP
NATIONAL WEATHER SERVICE GREEN BAY WI
500 PM CDT TUE SEP 16 2014

WIZ005-009-010>012-018-019-162300-
NORTH CENTRAL WISCONSIN

CITY           SKY/WX    TMP DP  RH WIND       PRES   REMARKS
IRONWOOD       PTSUNNY   64  45  48 W9        29.98F
MANITOWISH WTR NOT AVBL
ARBOR VITAE    NOT AVBL
EAGLE RIVER    NOT AVBL
LAND O LAKES   NOT AVBL
RHINELANDER    SUNNY     64  41  42 W13       30.05F
PHILLIPS       NOT AVBL
ANTIGO         NOT AVBL
TOMAHAWK       NOT AVBL
MERRILL        NOT AVBL
$$

WIZ013-073-162300-
NORTHEAST WISCONSIN

CITY           SKY/WX    TMP DP  RH WIND       PRES   REMARKS
IRON MOUNTAIN  SUNNY     67  40  37 W8G18     29.99F
MARINETTE      SUNNY     66  43  42 W8        30.01F
$$

WIZ017-030-035>037-045-162300-
CENTRAL WISCONSIN

CITY           SKY/WX    TMP DP  RH WIND       PRES   REMARKS
MEDFORD        NOT AVBL
WAUSAU         SUNNY     64  42  44 W10       30.06F
MOSINEE        MOSUNNY   63  45  51 W9        30.08F
MARSHFIELD     MOSUNNY   62  42  47 SW8       30.07F
WISC RAPIDS    MOSUNNY   63  40  42 SW8       30.09F
STEVENS POINT  NOT AVBL
WAUPACA        NOT AVBL
SHAWANO        NOT AVBL
CLINTONVILLE   NOT AVBL
$$

WIZ038-039-048-051-162300-
FOX VALLEY

CITY           SKY/WX    TMP DP  RH WIND       PRES   REMARKS
NWS GREEN BAY  SUNNY     65  44  46 W9        30.07F
APPLETON       MOSUNNY   64  39  39 SW9       30.09S
OSHKOSH        SUNNY     64  43  46 W7        30.08F
FOND DU LAC    SUNNY     63  41  44 W7        30.09F
$$

WIZ022-050-052-162300-
EAST CENTRAL WISCONSIN

CITY           SKY/WX    TMP DP  RH WIND       PRES   REMARKS
STURGEON BAY   SUNNY     63  43  48 SW12      30.05F
MANITOWOC      NOT AVBL
SHEBOYGAN      SUNNY     64  40  41 W7        30.09F
$$

LMZ563-521-522-541>543-162300-
LAKESHORE

STATION/POSITION TIME  TEMP    WIND        PRES    VSBY  WAVE
                       AIR SEA DIR/SP/G                  HT/PER
                 (UTC) (F)     (DEG/KT/KT) (MB)    (MI)  (FT/S)
SHEBOYGAN LKSHOR 2100   62 48  220/  9/ 10 1019.4F
KEWAUNEE LKSHORE 2100   64     250/  8/ 13 1017.3F
TWO RIVERS CG    2100   54 61              1019.2      6   1
NORTHPORT PIER   2100   65     220/  5/ 13 1016.6F
N MID LAKE BUOY  2100   57 58  210/ 19/ 23 1016.9F         3/ 4
STURGEON BAY CG  2100      55  280/  4     1019.2      6   1
CHAMBERS ISLAND  2100   64     190/  5/ 15 1016.9F
MENOMINEE LKSHOR 2100   66     230/ 12/ 17 1017.4F
$$


USA.gov is the U.S. government's official web portal to all federal, state and local government web resources and services.